CZ-6A DEB

Satellite information

Favourite Embed

Satellite Type and Status

DEBRISIN ORBIT

Key statistics

Satellite CZ-6A DEB at a glance.

Uptime

1074

Days in orbit

Revolutions

≈ 14.5

Per day

Orbit

SSO

Sun Synchronous Orbit

Inclination

98.8

Latest

Satellite identification and parameters

Extended collection of information and parameters for CZ-6A DEB.

Object identification

Identified? True

Debris? True

Object name: CZ-6A DEB

International designator: 2022-151KT

Object number (NORAD): 54543

Object ID (CCSDS): 54543

Country: PEOPLES REPUBLIC OF CHINA (PRC)

Current information (Y/N): Y

RCS size: SMALL

Orbital parameters

Period: 99.308 minutes

Inclination: 98.7586 deg

SMA: 7103.676 km

Apoapsis: 806.118 km

Periapsis: 644.963 km

RAAN: 353.6024 deg

Eccentricy: 0.01134306

Argument of periapsis: 327.9158 deg

Mean anomaly: 31.5165 deg

Mean motion: 14.50033632 rev/day

Mean motion (dot): 0.00004227 rev/day2

B* drag term: 0.0010167685 1/REarth

Two-line elements (TLE)

Creation date: Oct. 20, 2025, 2:10 a.m.

Reference frame: TEME

Reference center: EARTH

Epoch: Oct. 19, 2025, 10:54 a.m. UTC

TLE line 0: 0 CZ-6A DEB

TLE line 1: 1 54543U 22151KT 25292.45432167 .00004227 00000-0 10168-2 0 9997

TLE line 2: 2 54543 98.7586 353.6024 0113431 327.9158 31.5165 14.50033632154601

Live tracking on map

Real-time ground track for satellite CZ-6A DEB.

In-orbit conjunctions

A list of the most updated potential collisions computed for object CZ-6A DEB.

Target Orbit TCA Probability of collision Miss distance Type
COSMOS 1275 DEB LEO 2024-11-12 19:57:37 0.0004589867 98.0 (m) DEBRIS
METEOR 2-8 DEB LEO 2024-07-17 13:38:16 0.0001848229 109.0 (m) DEBRIS

Associated space launch

Chinese satellite reported for atmospheric/ocean/environmental/spatial parameter research purposes, details TBD.

CZ-6A DEB was lifted into orbit during the mission ‘Long March 6A | Yunhai 3’, on board a Long March 6A space rocket.

The launch took place on Nov. 11, 2022, 10:52 p.m. from Launch Complex 9A.

For more information about the launch, click the button.

Launch to space Long March 6A | Yunhai 3
Long March 6A | Yunhai 3

Agency: N/A

Status: Launch Successful

Launch date: Nov. 11, 2022, 10:52 p.m. UTC

Rocket: Long March 6A

Launch pad: Launch Complex 9A

Location: Taiyuan Satellite Launch Center, People's Republic of China

...

Latest news about this satellite

There are no fresh news available about this satellite. Check back as we update our databases every day.


Newsletter sign-up

Weekly statistics, charts and insights to help you stay on top of the space industry.